Location: Newark
(15.4608°S, 41.1635°W)
Time: 16:27:58
(UTC+00:00)

Explorer 11/Cluster Stage 4 - All Passes

Search period start: 27 February 2021 00:00
Search period end: 09 March 2021 00:00
Orbit: 467 x 1257 km, 28.8° (Epoch: 27 February)

Date Brightness Start Highest point End Pass type
(mag) Time Alt. Az. Time Alt. Az. Time Alt. Az.
27 Feb - 01:07:39 10° SW 01:11:11 31° SSE 01:15:16 10° E night (unlit)
27 Feb - 02:55:13 10° WSW 02:59:35 58° NNW 03:05:00 10° NE night (unlit)
27 Feb - 04:45:19 10° WNW 04:48:24 15° NNW 04:51:51 10° N night (unlit)
27 Feb - 15:52:26 10° N 15:56:17 17° NNE 15:59:42 10° ENE daylight
27 Feb - 17:39:34 10° NW 17:45:07 63° NNE 17:49:33 10° ESE daylight
27 Feb - 19:29:27 10° W 19:33:32 30° SSW 19:37:03 10° SE daylight
27 Feb - 21:20:58 10° SSW 21:22:24 12° S 21:23:47 10° SSE daylight
27 Feb - 23:10:01 10° SSW 23:11:39 12° S 23:13:18 10° SE visible
28 Feb - 00:56:49 10° SW 01:00:22 36° SSE 01:04:26 10° E night (unlit)
28 Feb - 02:44:36 10° W 02:48:42 45° NNW 02:53:43 10° NE night (unlit)
28 Feb - 04:35:56 10° NW 04:37:32 11° NNW 04:39:13 10° N night (unlit)
28 Feb - 15:40:30 10° NNW 15:45:23 22° NNE 15:49:35 10° ENE daylight
28 Feb - 17:28:20 10° WNW 17:34:12 79° NNE 17:38:52 10° ESE daylight
28 Feb - 19:18:38 10° W 19:22:43 27° SSW 19:26:13 10° SE daylight
28 Feb - 21:10:19 10° SSW 21:11:41 11° S 21:13:01 10° SSE daylight
28 Feb - 22:59:02 10° SSW 23:00:55 13° S 23:02:49 10° SE visible
01 Mar - 00:45:59 10° SW 00:49:33 43° SSE 00:53:36 10° E night (unlit)
01 Mar - 02:34:03 10° W 02:37:51 35° NNW 02:42:23 10° NE night (unlit)
01 Mar - 15:28:45 10° NNW 15:34:25 27° NNE 15:39:15 10° E daylight
01 Mar - 17:17:08 10° WNW 17:23:17 86° SSW 17:28:08 10° ESE daylight
01 Mar - 19:07:48 10° WSW 19:11:54 25° SSW 19:15:25 10° SE daylight
01 Mar - 20:59:31 10° SSW 21:00:58 12° S 21:02:23 10° SSE daylight
01 Mar - 22:48:01 10° SSW 22:50:12 15° SSE 22:52:22 10° SE visible
02 Mar - 00:35:09 10° SW 00:38:45 53° SSE 00:42:45 10° ENE night (unlit)
02 Mar - 02:23:34 10° W 02:27:00 26° NNW 02:30:58 10° NNE night (unlit)
02 Mar - 15:17:07 10° NW 15:23:27 34° NNE 15:28:45 10° E daylight
02 Mar - 17:05:59 10° WNW 17:12:21 73° SSW 17:17:22 10° ESE daylight
02 Mar - 18:56:58 10° WSW 19:01:05 23° SSW 19:04:37 10° SE daylight
02 Mar - 20:48:35 10° SSW 20:50:15 12° S 20:51:52 10° SSE daylight
02 Mar - 22:36:58 10° SSW 22:39:28 17° SSE 22:41:55 10° SE visible
03 Mar - 00:24:19 10° WSW 00:27:57 68° SSE 00:31:53 10° ENE night (unlit)
03 Mar - 02:13:14 10° WNW 02:16:10 20° NNW 02:19:27 10° NNE night (unlit)
03 Mar - 13:20:02 10° N 13:23:04 13° NNE 13:25:57 10° NE daylight
03 Mar - 15:05:34 10° NW 15:12:27 41° NNE 15:18:10 10° E daylight
03 Mar - 16:54:50 10° WNW 17:01:23 63° SSW 17:06:34 10° ESE daylight
03 Mar - 18:46:06 10° WSW 18:50:15 22° SSW 18:53:50 10° SE daylight
03 Mar - 20:37:33 10° SSW 20:39:33 13° S 20:41:25 10° SSE daylight
03 Mar - 22:25:54 10° SSW 22:28:43 19° SSE 22:31:27 10° ESE visible
04 Mar - 00:13:30 10° WSW 00:17:08 89° SSE 00:20:59 10° ENE night (unlit)
04 Mar - 02:03:07 10° WNW 02:05:20 15° NNW 02:07:44 10° N night (unlit)
04 Mar - 13:07:35 10° N 13:12:02 16° NNE 13:16:15 10° ENE daylight
04 Mar - 14:54:04 10° NW 15:01:24 50° NNE 15:07:29 10° ESE daylight
04 Mar - 16:43:43 10° W 16:50:24 55° SSW 16:55:45 10° SE daylight
04 Mar - 18:35:13 10° WSW 18:39:26 21° SSW 18:43:04 10° SE daylight
04 Mar - 20:26:28 10° SSW 20:28:50 14° S 20:31:01 10° SSE daylight
04 Mar - 22:14:50 10° SW 22:18:00 23° SSE 22:20:57 10° ESE visible
05 Mar - 00:02:43 10° WSW 00:06:20 69° NNW 00:10:03 10° ENE visible
05 Mar - 01:53:40 10° NW 01:54:30 11° NNW 01:55:21 10° NNW night (unlit)
05 Mar - 12:55:32 10° NNW 13:00:59 20° NNE 13:06:05 10° ENE daylight
05 Mar - 14:42:39 10° NW 14:50:20 59° NNE 14:56:44 10° ESE daylight
05 Mar - 16:32:37 10° W 16:39:25 49° SSW 16:44:54 10° SE daylight
05 Mar - 18:24:17 10° WSW 18:28:38 21° SSW 18:32:21 10° SE daylight
05 Mar - 20:15:20 10° SW 20:18:06 15° S 20:20:37 10° SE daylight
05 Mar - 22:03:45 10° SW 22:07:14 28° SSE 22:10:27 10° ESE visible
05 Mar - 23:51:57 10° WSW 23:55:31 51° NNW 23:59:05 10° NE visible
06 Mar - 12:43:42 10° NNW 12:49:53 24° NNE 12:55:42 10° E daylight
06 Mar - 14:31:18 10° NW 14:39:13 69° NNE 14:45:56 10° ESE daylight
06 Mar - 16:21:33 10° W 16:28:25 45° SSW 16:34:03 10° SE daylight
06 Mar - 18:13:20 10° WSW 18:17:49 21° S 18:21:39 10° SE daylight
06 Mar - 20:04:09 10° SW 20:07:22 17° S 20:10:15 10° SE daylight
06 Mar - 21:52:39 10° SW 21:56:30 34° SSE 21:59:54 10° E visible
06 Mar - 23:41:13 10° W 23:44:41 38° NNW 23:48:04 10° NE visible
07 Mar - 12:32:00 10° NNW 12:38:46 28° NNE 12:45:09 10° E daylight
07 Mar - 14:19:59 10° WNW 14:28:06 80° NNE 14:35:04 10° ESE daylight
07 Mar - 16:10:30 10° W 16:17:26 41° SSW 16:23:11 10° SE daylight
07 Mar - 18:02:20 10° WSW 18:06:59 21° S 18:10:59 10° SE daylight
07 Mar - 19:52:57 10° SW 19:56:38 19° S 19:59:51 10° SE daylight
07 Mar - 21:41:34 10° SW 21:45:43 42° SSE 21:49:19 10° E visible
07 Mar - 23:30:31 10° W 23:33:50 29° NNW 23:37:00 10° NNE visible
08 Mar - 12:20:25 10° NNW 12:27:36 33° NNE 12:34:27 10° E daylight
08 Mar - 14:08:44 10° WNW 14:16:58 90° SSW 14:24:09 10° ESE daylight
08 Mar - 15:59:28 10° W 16:06:26 38° SSW 16:12:18 10° SE daylight
08 Mar - 17:51:17 10° SW 17:56:10 22° S 18:00:20 10° SE daylight
08 Mar - 19:41:43 10° SW 19:45:53 22° S 19:49:26 10° ESE daylight
08 Mar - 21:30:28 10° SW 21:34:55 54° SSE 21:38:41 10° E visible
08 Mar - 23:19:53 10° W 23:22:58 22° NNW 23:25:51 10° NNE visible
